Regional Weather Roundup
Issued by NWS Upton, NY

Current Version | Previous Version | Graphics & Text | Print | Product List | Glossary Off
Versions: 1 2 3 4 5 6 7 8 9 10 11 12 13 14 15 16 17 18 19 20 21 22 23 24 25 26 27 28 29 30 31 32 33 34 35 36 37 38 39 40 41 42 43 44 45 46 47 48 49 50

000
ASUS41 KOKX 231205
RWROKX

REGIONAL WEATHER ROUNDUP
NATIONAL WEATHER SERVICE NEW YORK NY
800 AM EDT TUE AUG 23 2016

NOTE: "FAIR" INDICATES FEW OR NO CLOUDS BELOW 12,000 FEET WITH NO
SIGNIFICANT WEATHER AND/OR OBSTRUCTIONS TO VISIBILITY.

NYZ071-072-176-178-NJZ106-104-231300-
NEW YORK CITY METRO AREA

CITY           SKY/WX    TMP DP  RH WIND       PRES   REMARKS
Central Park   SUNNY     65  49  56 VRB3      30.34R
LaGuardia APRT SUNNY     69  50  50 NW6       30.30R
Kennedy INTL   SUNNY     67  48  50 CALM      30.31R
Newark/Liberty SUNNY     67  49  52 N3        30.31R
Bronx Bot Gard   N/A     68  52  56 NW2       30.33R
Wall St Helipt SUNNY     68  52  56 W3        30.32R
Teterboro      SUNNY     64  51  62 NW7       30.31R
$$

NYZ177-179-078>081-231300-
LONG ISLAND NEW YORK

CITY           SKY/WX    TMP DP  RH WIND       PRES   REMARKS
Farmingdale    SUNNY     67  55  65 N5        30.31R
MacArthur/ISP  SUNNY     68  55  63 N6        30.30R
Shirley        SUNNY     66  57  72 N5        30.31R
Riverhead      NOT AVBL
Westhampton    SUNNY     65  55  70 N3        30.32R
Southampton      N/A     68  55  64 N3        30.26R
Bridgehampton  NOT AVBL
East Hampton   FAIR      64  57  77 CALM      30.29R
Montauk          N/A     66  55  67 NW6       30.30R
$$

NYZ052-065-067-231300-
HUDSON VALLEY

CITY           SKY/WX    TMP DP  RH WIND       PRES   REMARKS
White Plains   SUNNY     63  53  70 NW7       30.31R
Newburgh       SUNNY     57  54  88 W5        30.34R
Montgomery     SUNNY     57  53  86 SW5       30.33R
Poughkeepsie   SUNNY    N/A N/A N/A MISG      30.32R
Albany         SUNNY     57  52  83 VRB5      30.32R
$$

NJZ001-105-106-008-010-013-015-019>022-104-231300-
NEW JERSEY

CITY           SKY/WX    TMP DP  RH WIND       PRES   REMARKS
Newark/Liberty SUNNY     67  49  52 N3        30.31R
Teterboro      SUNNY     64  51  62 NW7       30.31R
Caldwell       SUNNY     61  53  75 CALM      30.33R
Morristown     SUNNY     57  55  94 CALM      30.33R
Somerville     SUNNY     58  53  84 CALM      30.31R
Linden         FAIR      65  50  56 CALM      30.33S
Sussex         SUNNY     55  54  96 CALM      30.34R
Abdover          N/A     55  53  93 CALM      30.34R
Trenton        SUNNY     62  53  72 W5        30.32R
Millville      SUNNY     63  56  78 NW3       30.33R
Atlantic City  MOSUNNY   63  53  70 N5        30.32R
Wrightstown    SUNNY     64  56  77 N2        30.30R
Toms River     SUNNY     61  53  75 NW5       30.33R
Belmar         SUNNY     62  53  72 NW6       30.33R
$$

PAZ047>061-062-071-231300-
EASTERN PENNSYLVANIA

CITY           SKY/WX    TMP DP  RH WIND       PRES   REMARKS
Philadelphia   MOSUNNY   66  54  65 N5        30.33R
Allentown      SUNNY     59  54  83 CALM      30.34R
Scranton       SUNNY     57  51  80 CALM      30.35R
$$

CTZ002-004>006-009-010-012-RIZ004-006-007-MAZ004-011-015-231300-
SOUTHERN NEW ENGLAND
 IN CT

CITY           SKY/WX    TMP DP  RH WIND       PRES   REMARKS
Bradley INTL   SUNNY     59  51  75 CALM      30.31R
Hartford       SUNNY     62  53  72 CALM      30.30R
Danbury        SUNNY     57  52  83 SW3       30.32S
Wtrbury/Oxford SUNNY     59  48  67 N3        30.32R
Bridgeport     SUNNY     66  51  58 N3        30.30R
Meriden        SUNNY     61  52  72 CALM      30.31R
New Haven      SUNNY     63  52  67 N6        30.30R
Chester        FAIR      63  52  67 NW5       30.30R
Groton         SUNNY     65  53  65 N5        30.28R
Wilimantic     SUNNY     56  54  93 CALM      30.30R

 IN RI

CITY           SKY/WX    TMP DP  RH WIND       PRES   REMARKS
Providence     SUNNY     65  51  60 NW5       30.28R
Block Island   SUNNY     66  55  67 NW5         N/A
Westerly       SUNNY     64  50  60 N7        30.29R
 IN MA

CITY           SKY/WX    TMP DP  RH WIND       PRES   REMARKS
Boston         SUNNY     65  50  58 NW10      30.26R
Worcester      SUNNY     60  49  66 W8        30.29R
Westfield      SUNNY     56  52  86 CALM      30.30R
Provincetown   SUNNY     65  56  72 NW9       30.25R
Nantucket      SUNNY     69  53  56 N13       30.25R
$$

ANZ330-335-338-340-345-350-353-355-231300-
COASTAL MARINE OBSERVATIONS


STATION/POSITION TIME  SKY/WX   TEMP    WIND        PRES    VSBY  WAVE
                                AIR SEA DIR/SP/G                  HT/PER
                 (UTC)          (F)     (DEG/KT/KT) (MB)    (MI)  (FT/S)
NY HARB ENTRANCE 1050            70 76  360/  8/ 10 1025.6          1/13
20S FIRE ISLAND  1050            70 76   10/ 12/ 14 1025.2          2/ 4
GREAT SOUTH BAY  1100            66 79  350/  8/ 10   N/A
23 SSW MONTAUK P 1050            69 74  340/ 12/ 14 1025.4          2/13
15 E BARNEGAT LI 1130               76                N/A           3/ 5
HUDSON CANYON    1050            72 78              1024.8          4/ 5
KINGS POINT      1100            66 74              1025.7
EXECUTION ROCKS  1100            67     330/  8/ 10   N/A
CENTRAL LI SOUND 1115            67 74  320/ 16/ 17   N/A           2/ 3
EASTERN LI SOUND 1100            67 69  340/ 10/ 12   N/A
ROBBINS REEF     1106            64     330/  5/  8 1025.5
$$


>>>>>>>>>>>>>>>>>>>>>>>>>>>> KEY <<<<<<<<<<<<<<<<<<<<<<<<<<<
>                                                          <
>     SKY/WX - Sky Condition/Present Weather               <
>     TMP    - Temperature in Fahrenheit                   <
>     DP     - Dew Point in Fahrenheit                     <
>     RH     - Relative Humidity in Percent                <
>     WIND   - Direction (from) and Speed in MPH           <
>     PRES   - Mean Sea Level Pressure (inches of Hg)      <
>     WCI    - Wind Chill Index                            <
>     VSB    - VISIBILITY IN MILES                         <
>     HX     - HEAT INDEX                                  <
>     TC     - TEMPERATURE IN CELSIUS                      <
>     VRB    - VARIABLE WIND DIRECTION                     <
>                                                          <
>>>>>>>>>>>>>>>>>>>>>>>>>>>> KEY <<<<<<<<<<<<<<<<<<<<<<<<<<<



USA.gov is the U.S. government's official web portal to all federal, state and local government web resources and services.